[[{"header":{"parameterUnit":"m.s-1","parameterCategory":1,"la1":30.2991,"la2":30.254,"lo1":-89.0895,"lo2":-89.0444,"dy":0.0017,"dx":0.0017,"nx":28,"ny":28,"refTime":"2023-11-20T03:00:00:Z","depth":0,"parameterNumber":2,"parameterNumberName":"U-component_of_WINDS"},"data":[0,0,0,0,0,0,0,0,0,0,0,0,0,0,0,0,0,0,0,0,0,0,0,0,0,0,0,0,0,0,0,0,0,0,0,0,0,0,0,0,0,0,0,0,0,0,0,0,0,0,0,0,0,0,0,0,0,0,0.6057,0.6058,0,0.6106,0.6107,0.6108,0.6133,0.6133,0.6133,0.6133,0.6187,0.6188,0.6189,0,0,0,0,0,0,0,0,0,0,0,0,0,0.5988,0.5989,0.6057,0.6058,0.6058,0.6106,0.6107,0.6108,0.6133,0.6133,0.6133,0.6133,0.6186,0.6188,0.619,0,0,0,0,0,0,0,0,0,0,0,0,0,0.6026,0.5989,0.6057,0.6077,0.6079,0.6106,0.6107,0.6108,0.6133,0.6133,0.6133,0.6133,0.6186,0.6188,0.619,0.6202,0,0,0.6196,0.6197,0,0,0,0,0,0,0,0,0.6023,0.6028,0.6073,0.6075,0.6078,0.6114,0.6102,0.614,0.6133,0.6113,0.6133,0.6133,0.6163,0.6167,0.6176,0.6205,0.6207,0.6196,0.6198,0.6199,0.6199,0,0,0,0,0,0,0,0.6021,0.6026,0.6077,0.6074,0.6077,0.6084,0.6089,0.6109,0.6137,0.6114,0.6116,0.6122,0.6164,0.6174,0.6177,0.6208,0.6196,0.6198,0.62,0.62,0.625,0.625,0,0,0,0,0,0,0.6015,0.6024,0.6075,0.6078,0.605,0.6085,0.6091,0.6102,0.6137,0.6142,0.6122,0.6123,0.617,0.6175,0.6179,0.6196,0.6199,0.6201,0.6202,0.625,0.625,0.625,0,0,0,0,0,0,0.6013,0.6019,0.6073,0.6051,0.6059,0.6086,0.6098,0.6103,0.6113,0.6142,0.6147,0.6126,0.617,0.6176,0.6196,0.6198,0.6201,0.6203,0.625,0.625,0.625,0.623,0,0,0,0,0,0,0.6011,0.6018,0.6022,0.6051,0.606,0.6088,0.6098,0.6104,0.6116,0.6118,0.6148,0.6153,0.6171,0.6193,0.6198,0.6201,0.6205,0.625,0.625,0.625,0.6231,0.6229,0.6228,0,0,0,0,0,0.6008,0.6015,0.6022,0.6028,0.6066,0.6088,0.6093,0.6113,0.6116,0.6121,0.614,0.6152,0.6197,0.6195,0.6201,0.6205,0.625,0.625,0.625,0.6231,0.623,0.6228,0,0,0,0,0,0,0.5986,0.6019,0.6028,0.6044,0.6063,0.6092,0.6099,0.611,0.6129,0.6131,0.6155,0.6161,0.6179,0.6194,0.6191,0.6219,0.6225,0.6226,0.6208,0.6207,0.6206,0.6202,0.6207,0,0,0,0,0,0.5983,0.5998,0.6026,0.6038,0.6047,0.6071,0.6082,0.6095,0.6116,0.6125,0.6145,0.6166,0.6185,0.6197,0.6216,0.6233,0.624,0.6239,0.6238,0.6237,0.6238,0.6248,0.6248,0.625,0.625,0.625,0,0,0.5977,0.5997,0.6005,0.6034,0.605,0.6066,0.6078,0.6094,0.6106,0.6128,0.6147,0.6163,0.6188,0.6206,0.6216,0.622,0.6239,0.6237,0.6236,0.6237,0.6248,0.6248,0.6248,0.6251,0.6251,0.625,0,0,0.5974,0.5991,0.6002,0.6018,0.6042,0.6059,0.6061,0.6089,0.61,0.612,0.6137,0.6153,0.6185,0.6202,0.6215,0.6219,0.6231,0.6225,0.6219,0.6229,0.6229,0.6228,0.623,0.6231,0.6225,0.6225,0.6225,0,0.5964,0.5987,0.6007,0.6022,0.6034,0.6054,0.6067,0.6082,0.6111,0.612,0.6124,0.6164,0.6183,0.6206,0.6207,0.6216,0.6221,0.6221,0.6227,0.6227,0.6227,0.6229,0.623,0.6224,0.6224,0.6225,0.6225,0,0.5973,0.5989,0.5996,0.6023,0.6037,0.605,0.6073,0.6085,0.6097,0.6113,0.6134,0.6157,0.6181,0.6187,0.62,0.6212,0.6214,0.6222,0.6228,0.6226,0.6228,0.6229,0.6223,0.6223,0.6224,0.6224,0,0,0.5957,0.5996,0.5998,0.6011,0.6039,0.6052,0.6068,0.609,0.61,0.612,0.6134,0.6161,0.6168,0.6183,0.6198,0.6206,0.6209,0.6214,0.6214,0.6212,0.6224,0.6218,0.6219,0.6217,0.6217,0.6217,0.6222,0,0.5958,0.5985,0.6004,0.6024,0.6039,0.6058,0.6072,0.6091,0.6107,0.6123,0.6141,0.616,0.6168,0.6177,0.6187,0.6206,0.6212,0.6206,0.6231,0.6231,0.6224,0.622,0.6213,0.6217,0.6223,0.6224,0.6224,0,0.5963,0.5981,0.6003,0.603,0.6037,0.6049,0.6071,0.6086,0.6109,0.612,0.6137,0.6152,0.617,0.6175,0.62,0.6196,0.6208,0.6219,0.6219,0.6222,0.6227,0.6223,0.6218,0.6219,0.6225,0.6225,0.6225,0,0.5949,0.598,0.5996,0.6007,0.6039,0.6047,0.6061,0.6084,0.6097,0.6117,0.6126,0.6148,0.616,0.6178,0.6199,0.6201,0.6222,0.6229,0.6233,0.6232,0.6236,0.6236,0.6234,0.6244,0.6244,0.6244,0.6244,0,0.5948,0.596,0.5991,0.6001,0.6016,0.6038,0.6052,0.6068,0.6088,0.6103,0.6121,0.6135,0.6162,0.6179,0.6196,0.6215,0.622,0.623,0.6234,0.6228,0.6227,0.6236,0.6236,0.6244,0.6244,0.6244,0.6244,0,0.5935,0.5955,0.5975,0.6004,0.6012,0.6021,0.6047,0.6058,0.6075,0.6093,0.6099,0.6126,0.6147,0.617,0.6199,0.621,0.6228,0.6234,0.622,0.6222,0.6225,0.6224,0.6228,0.623,0.6238,0.6238,0.6238,0,0.5932,0.5942,0.5972,0.5983,0.5996,0.6013,0.6026,0.6049,0.6062,0.6089,0.6097,0.612,0.6139,0.6172,0.6194,0.6217,0.6224,0.6224,0.6227,0.6221,0.6224,0.6223,0.6224,0.6223,0.6222,0.6222,0.6222,0,0.5926,0.5936,0.5954,0.5975,0.599,0.6008,0.6027,0.6035,0.6061,0.6075,0.6097,0.6111,0.6141,0.6163,0.6188,0.6204,0.6218,0.6221,0.6223,0.6217,0.6208,0.6213,0.6217,0.6221,0.6221,0.6221,0.6221,0.6221,0.5919,0.5928,0.5951,0.597,0.5987,0.6004,0.6016,0.6035,0.6053,0.6078,0.609,0.6112,0.6136,0.6171,0.6187,0.6204,0.6209,0.6211,0.6212,0.6213,0.6211,0.6205,0.6209,0.6209,0.6209,0.6209,0.6209,0,0.5914,0.5929,0.5947,0.5972,0.5988,0.5999,0.602,0.6033,0.6051,0.6072,0.609,0.6115,0.6137,0.6161,0.6185,0.6194,0.6201,0.62,0.6199,0.6203,0.6206,0.6202,0.6194,0.6194,0.6194,0.6194,0.6194,0.6194,0.5913,0.593,0.5943,0.5969,0.5985,0.6005,0.6017,0.6033,0.605,0.6077,0.6095,0.611,0.6133,0.6158,0.6179,0.6186,0.6194,0.6191,0.6199,0.6201,0.6203,0.6204,0.62,0.6192,0.6192,0.6195,0.6195,0.6195]},{"header":{"parameterUnit":"m.s-1","parameterCategory":1,"la1":30.2991,"la2":30.254,"lo1":-89.0895,"lo2":-89.0444,"dy":0.0017,"dx":0.0017,"nx":28,"ny":28,"refTime":"2023-11-20T03:00:00:Z","depth":0,"parameterNumber":3,"parameterNumberName":"V-component_of_WINDS"},"data":[0,0,0,0,0,0,0,0,0,0,0,0,0,0,0,0,0,0,0,0,0,0,0,0,0,0,0,0,0,0,0,0,0,0,0,0,0,0,0,0,0,0,0,0,0,0,0,0,0,0,0,0,0,0,0,0,0,0,1.5627,1.5627,0,1.5593,1.5592,1.5592,1.5617,1.5618,1.5619,1.562,1.558,1.5578,1.5576,0,0,0,0,0,0,0,0,0,0,0,0,0,1.571,1.5708,1.5627,1.5627,1.5626,1.5593,1.5592,1.5592,1.5616,1.5618,1.5619,1.562,1.5581,1.5579,1.5576,0,0,0,0,0,0,0,0,0,0,0,0,0,1.5675,1.5708,1.5627,1.5635,1.5635,1.5593,1.5592,1.5592,1.5616,1.5618,1.5619,1.5621,1.5582,1.5579,1.5576,1.5523,0,0,1.5566,1.5565,0,0,0,0,0,0,0,0,1.5677,1.5672,1.5634,1.5634,1.5634,1.5611,1.5607,1.5569,1.5616,1.5623,1.562,1.5622,1.5589,1.5585,1.5575,1.5521,1.552,1.5566,1.5564,1.5563,1.5562,0,0,0,0,0,0,0,1.5679,1.5673,1.5614,1.5634,1.5634,1.5638,1.5635,1.56,1.5597,1.5623,1.5624,1.562,1.5589,1.5578,1.5574,1.5519,1.5566,1.5563,1.5561,1.556,1.5418,1.5416,0,0,0,0,0,0,1.5681,1.5675,1.5615,1.5613,1.566,1.5635,1.5632,1.5617,1.5598,1.5596,1.5619,1.5621,1.5583,1.5578,1.5573,1.5508,1.5563,1.556,1.5558,1.542,1.5418,1.5416,0,0,0,0,0,0,1.5683,1.5676,1.5616,1.5644,1.5637,1.5632,1.5615,1.5615,1.5604,1.5595,1.5594,1.5608,1.5584,1.5577,1.5535,1.5507,1.5558,1.5556,1.5422,1.5419,1.5417,1.538,0,0,0,0,0,0,1.5685,1.5676,1.5657,1.5644,1.5635,1.558,1.5613,1.5613,1.5599,1.5602,1.5584,1.5583,1.5584,1.554,1.5532,1.5504,1.5553,1.5425,1.5421,1.5418,1.5383,1.5376,1.537,0,0,0,0,0,1.5688,1.5648,1.5656,1.5649,1.5612,1.5578,1.5574,1.5577,1.5597,1.5576,1.557,1.5583,1.5512,1.5535,1.5527,1.5497,1.5426,1.5422,1.5418,1.5386,1.5377,1.537,0,0,0,0,0,0,1.5657,1.5646,1.5655,1.561,1.5595,1.5583,1.5558,1.5568,1.5546,1.555,1.5554,1.555,1.5505,1.5498,1.5523,1.5444,1.5472,1.5466,1.5451,1.5442,1.5436,1.5437,1.5551,0,0,0,0,0,1.5645,1.562,1.5612,1.5572,1.5564,1.5562,1.5548,1.5552,1.5536,1.553,1.5521,1.5504,1.5477,1.546,1.5435,1.5383,1.5378,1.5358,1.5351,1.5346,1.534,1.5309,1.53,1.5402,1.5402,1.5402,0,0,1.562,1.5611,1.5595,1.5566,1.5555,1.5527,1.5557,1.5527,1.5506,1.5525,1.5484,1.5477,1.5458,1.541,1.5388,1.5402,1.5311,1.534,1.5336,1.5333,1.5304,1.5294,1.5286,1.5399,1.5399,1.54,0,0,1.5559,1.5551,1.5516,1.5504,1.5488,1.5487,1.5478,1.5464,1.546,1.542,1.5433,1.5408,1.5363,1.5348,1.5335,1.5268,1.5278,1.526,1.5223,1.5193,1.5185,1.5178,1.5152,1.5142,1.5254,1.5254,1.5254,0,1.5529,1.5489,1.5496,1.5465,1.5451,1.5468,1.5432,1.542,1.5395,1.5384,1.5401,1.5343,1.5332,1.528,1.5264,1.5253,1.5242,1.5261,1.5186,1.5179,1.5172,1.5147,1.5138,1.5252,1.5252,1.5252,1.5252,0,1.5452,1.5424,1.5398,1.5375,1.5358,1.5324,1.5324,1.5306,1.5312,1.5308,1.5265,1.5253,1.5225,1.5213,1.5218,1.5161,1.517,1.5186,1.5213,1.516,1.5136,1.5127,1.5248,1.5249,1.525,1.5251,0,0,1.537,1.5351,1.5341,1.533,1.5312,1.529,1.5256,1.523,1.5213,1.5196,1.5166,1.5128,1.5142,1.5127,1.5131,1.5105,1.5049,1.5124,1.5123,1.5108,1.4983,1.4969,1.4958,1.5057,1.5055,1.5054,1.4984,0,1.5306,1.5249,1.5253,1.5198,1.5171,1.5187,1.5157,1.5143,1.5138,1.5114,1.5109,1.508,1.5103,1.5093,1.5069,1.5061,1.5024,1.5067,1.5027,1.5025,1.5029,1.4946,1.4932,1.4866,1.4975,1.4973,1.4972,0,1.5224,1.5204,1.5146,1.5132,1.5121,1.5094,1.507,1.5047,1.503,1.5028,1.5011,1.5019,1.4983,1.5013,1.4962,1.4991,1.4975,1.4969,1.4966,1.4961,1.4994,1.4936,1.4845,1.4835,1.4958,1.4959,1.496,0,1.5167,1.5126,1.5086,1.5076,1.5059,1.5039,1.5031,1.5015,1.4999,1.4977,1.4966,1.494,1.4925,1.4905,1.4904,1.4927,1.4852,1.4882,1.4847,1.4847,1.4829,1.483,1.4732,1.4823,1.4823,1.4823,1.4823,0,1.5094,1.5057,1.5059,1.5034,1.4993,1.4999,1.4957,1.4951,1.4937,1.4909,1.4922,1.4895,1.4898,1.4871,1.487,1.4826,1.482,1.4816,1.4816,1.4814,1.4814,1.4802,1.4806,1.482,1.4821,1.4821,1.4822,0,1.5022,1.5023,1.4979,1.4967,1.4962,1.4932,1.4921,1.4896,1.4893,1.4858,1.485,1.4844,1.4813,1.4811,1.4775,1.4774,1.4721,1.4727,1.4727,1.4727,1.4691,1.4694,1.458,1.4565,1.4668,1.4667,1.4666,0,1.4975,1.4947,1.4931,1.4915,1.4905,1.4878,1.4861,1.4865,1.4847,1.4825,1.4802,1.4772,1.4748,1.4697,1.4688,1.466,1.4664,1.4626,1.466,1.4658,1.4661,1.4661,1.4657,1.4619,1.4618,1.4617,1.4616,0,1.489,1.4891,1.4867,1.4843,1.4823,1.4804,1.4786,1.4771,1.4772,1.4751,1.472,1.4701,1.4664,1.4633,1.4605,1.4595,1.4605,1.4606,1.4596,1.4592,1.4592,1.459,1.4706,1.4608,1.4609,1.461,1.461,1.461,1.4827,1.4802,1.4787,1.476,1.4747,1.473,1.4705,1.4699,1.4674,1.4644,1.4648,1.4613,1.4595,1.4559,1.4546,1.4517,1.4529,1.4516,1.4512,1.4507,1.4503,1.4599,1.4512,1.4512,1.4513,1.4513,1.4513,0,1.474,1.4732,1.4706,1.4681,1.4659,1.4672,1.4653,1.4633,1.4602,1.4585,1.4561,1.4524,1.4494,1.4483,1.4454,1.4432,1.4436,1.4424,1.4424,1.4421,1.4494,1.4505,1.4421,1.4421,1.4421,1.4421,1.4421,1.4421,1.4693,1.4651,1.465,1.4601,1.4593,1.4559,1.4546,1.4529,1.4516,1.4474,1.4449,1.4444,1.4428,1.4398,1.437,1.4368,1.4355,1.434,1.434,1.4407,1.4416,1.4425,1.4435,1.4338,1.4338,1.4269,1.4268,1.4268]}]]